Tracking 19846 objects as of 21-Sep-2019
HD Live streaming from Space Station
objects crossing your sky now

FALCON 9 R/B

Track FALCON 9 R/B now!


NORAD ID: 44187
Int'l Code: 2019-021B
Perigee: 504.5 km
Apogee: 89,361.6 km
Inclination: 22.9 °
Period: 1,927.5 minutes
Semi major axis: 51304 km
RCS: Unknown
Launch date: April 11, 2019
Source: United States (US)
Launch site: AIR FORCE EASTERN TEST RANGE (AFETR)

Note: This is a ROCKET BODY
aabbcc
Your satellite tracking list
Your tracking list is empty




NASA's NSSDC Master Catalog

Two Line Element Set (TLE):
1 44187U 19021B   19196.01463575 -.00017854  00000-0 -71019+0 0  9998
2 44187  22.8931   2.9240 8659845 196.9194  79.9259  0.74709365   701
Source of the keplerian elements: AFSPC